Elandra Spruce — V7JM5 — position and weather

sailwx.info

Track history (hours):
 
Tides and Currents Weather Stations Pressure Air Temp Water Temp Dewpoint Dewpoint Depression Visibility Wind Speed Wind Dir Waves Ship Positions

Elandra Spruce

Last reported at 2017-May-01 05:30 UTC. Time now 2017-May-23 17:04 UTC.
Position N 27°38' W 013°58'.
Warning: this ship's position is 22 days out of date.

Length 183 m; draft 11.6 m.

Type: Tanker. MMSI: 538006719.

Date/timePositionNaut miles runAvg speedWind from/ knotsBaromVisibWave heightAir tempDewpointWater temp
2017-May-01 05:30N 27°38' W 013°58'913.0
2017-May-01 04:47N 27°46' W 013°52'2513.0
2017-May-01 02:52N 28°04' W 013°34'1612.6
2017-May-01 01:38N 28°17' W 013°23'212.9
2017-May-01 01:30N 28°18' W 013°22'1013.0
2017-May-01 00:42N 28°27' W 013°16'313.0
2017-May-01 00:30N 28°29' W 013°14'1112.9
2017-Apr-30 23:39N 28°38' W 013°08'213.2
2017-Apr-30 23:28N 28°40' W 013°06'1013.3
2017-Apr-30 22:45N 28°48' W 012°60'813.2
2017-Apr-30 22:08N 28°55' W 012°55'54413.1
2017-Apr-29 04:44N 35°58' W 006°09'1512.1
2017-Apr-29 03:29N 35°58' W 005°50'714.1
2017-Apr-29 03:00N 35°58' W 005°41'713.8
2017-Apr-29 02:30N 35°58' W 005°33'612.5
2017-Apr-29 02:00N 36°00' W 005°26'4 7.8
2017-Apr-29 01:30N 36°04' W 005°24'1 2.8
2017-Apr-29 01:00N 36°05' W 005°22'510.4
2017-Apr-29 00:30N 36°04' W 005°16'611.3
2017-Apr-29 00:00N 36°05' W 005°09'  
2017-Apr-26 00:36N 36°58' E 007°00'8 6.6
2017-Apr-25 23:27N 37°05' E 006°56'0 0.5
2017-Apr-25 22:40N 37°05' E 006°56'0 0.9
2017-Apr-25 22:27N 37°05' E 006°56'1 0.3
2017-Apr-25 18:56N 37°05' E 006°54'2 0.7
2017-Apr-25 15:55N 37°05' E 006°57'2 0.7
2017-Apr-25 13:38N 37°03' E 006°58'0 0.8
2017-Apr-25 13:30N 37°04' E 006°58'1 0.6
2017-Apr-25 12:25N 37°04' E 006°57'1 0.2
2017-Apr-25 07:45N 37°05' E 006°57'1 0.4
2017-Apr-25 06:36N 37°05' E 006°57'0 1.4
2017-Apr-25 06:31N 37°05' E 006°57'2 2.9
2017-Apr-25 05:54N 37°03' E 006°57'0 0.4
2017-Apr-25 04:43N 37°03' E 006°57'0 0.7
2017-Apr-25 04:30N 37°04' E 006°57'1 1.1
2017-Apr-25 04:00N 37°04' E 006°57'2 4.3
2017-Apr-25 03:31N 37°03' E 006°55'4 8.0
2017-Apr-25 03:00N 37°00' E 006°51'611.3
2017-Apr-25 02:31N 37°03' E 006°45'611.9
2017-Apr-25 02:00N 37°06' E 006°39'611.9
2017-Apr-25 01:30N 37°09' E 006°32'611.7
2017-Apr-25 01:00N 37°12' E 006°26'711.8
2017-Apr-25 00:23N 37°12' E 006°16'512.1
2017-Apr-25 00:00N 37°12' E 006°11'612.3
2017-Apr-24 23:30N 37°12' E 006°03'612.7
2017-Apr-24 23:01N 37°12' E 005°55'612.8
2017-Apr-24 22:30N 37°12' E 005°47'712.7
2017-Apr-24 21:58N 37°12' E 005°38'612.8
2017-Apr-24 21:30N 37°12' E 005°31'812.8
2017-Apr-24 20:51N 37°12' E 005°20'412.6
2017-Apr-24 20:30N 37°12' E 005°15'612.9
2017-Apr-24 20:00N 37°12' E 005°07'713.0
2017-Apr-24 19:29N 37°12' E 004°58'613.0
2017-Apr-24 19:00N 37°12' E 004°50'612.8
2017-Apr-24 18:31N 37°12' E 004°43'612.7
2017-Apr-24 18:00N 37°12' E 004°35'612.5
2017-Apr-24 17:30N 37°13' E 004°27'612.2
2017-Apr-24 16:59N 37°12' E 004°19'1212.0
2017-Apr-24 15:59N 37°12' E 004°04'612.1
2017-Apr-24 15:31N 37°12' E 003°56'612.0
2017-Apr-24 15:00N 37°11' E 003°49'612.0
2017-Apr-24 14:30N 37°11' E 003°41'1212.2
2017-Apr-24 13:30N 37°09' E 003°26'612.3
2017-Apr-24 13:00N 37°08' E 003°18'612.3
2017-Apr-24 12:30N 37°08' E 003°11'612.4
2017-Apr-24 12:00N 37°07' E 003°03'612.8
2017-Apr-24 11:30N 37°06' E 002°55'813.0
2017-Apr-24 10:55N 37°05' E 002°46'812.9
2017-Apr-24 10:18N 37°05' E 002°36'413.1
2017-Apr-24 10:00N 37°04' E 002°31'713.1
2017-Apr-24 09:30N 37°03' E 002°23'612.9
2017-Apr-24 09:00N 37°03' E 002°15'612.8
2017-Apr-24 08:30N 37°02' E 002°07'613.0
2017-Apr-24 08:00N 37°01' E 001°59'813.2
2017-Apr-24 07:23N 37°00' E 001°48'513.0
2017-Apr-24 07:00N 36°59' E 001°42'613.0
2017-Apr-24 06:30N 36°59' E 001°34'1213.1
2017-Apr-24 05:37N 36°57' E 001°20'313.3
2017-Apr-24 05:22N 36°57' E 001°16'513.2
2017-Apr-24 05:00N 36°56' E 001°10'713.6
2017-Apr-24 04:30N 36°55' E 001°01'813.8
2017-Apr-24 03:55N 36°54' E 000°51'713.8
2017-Apr-24 03:24N 36°54' E 000°42'513.7
2017-Apr-24 03:00N 36°53' E 000°36'1413.5
2017-Apr-24 01:56N 36°49' E 000°18'613.2
2017-Apr-24 01:29N 36°49' E 000°11'613.1
2017-Apr-24 01:01N 36°47' E 000°03'1113.3
2017-Apr-24 00:12N 36°44' W 000°10'413.4
2017-Apr-23 23:54N 36°44' W 000°15'613.2
2017-Apr-23 23:26N 36°42' W 000°22'513.1
2017-Apr-23 23:00N 36°41' W 000°29'713.1
2017-Apr-23 22:27N 36°39' W 000°38'713.2
2017-Apr-23 21:55N 36°38' W 000°46'20112.6
2017-Apr-23 05:57N 36°03' W 004°52'611.5
2017-Apr-23 05:26N 36°02' W 004°59'511.7
2017-Apr-23 05:00N 36°01' W 005°05'611.5
2017-Apr-23 04:31N 36°00' W 005°12'611.5
2017-Apr-23 04:00N 35°59' W 005°19'714.0
2017-Apr-23 03:30N 35°57' W 005°27'714.1
2017-Apr-23 03:00N 35°55' W 005°36'714.1
2017-Apr-23 02:30N 35°54' W 005°44'913.7
2017-Apr-23 01:51N 35°54' W 005°55'513.1
2017-Apr-23 01:30N 35°53' W 006°01'  
Track history (hours):
 
Tides and Currents Weather Stations Pressure Air Temp Water Temp Dewpoint Dewpoint Depression Visibility Wind Speed Wind Dir Waves Ship Positions

Elandra Spruce

Last reported at 2017-May-01 05:30 UTC. Time now 2017-May-23 17:04 UTC.
Position N 27°38' W 013°58'.
Warning: this ship's position is 22 days out of date.

Length 183 m; draft 11.6 m.

Type: Tanker. MMSI: 538006719.

Date/timePositionNaut miles runAvg speedWind from/ knotsBaromVisibWave heightAir tempDewpointWater temp
2017-May-01 05:30N 27°38' W 013°58'913.0
2017-May-01 04:47N 27°46' W 013°52'2513.0
2017-May-01 02:52N 28°04' W 013°34'1612.6
2017-May-01 01:38N 28°17' W 013°23'212.9
2017-May-01 01:30N 28°18' W 013°22'1013.0
2017-May-01 00:42N 28°27' W 013°16'313.0
2017-May-01 00:30N 28°29' W 013°14'1112.9
2017-Apr-30 23:39N 28°38' W 013°08'213.2
2017-Apr-30 23:28N 28°40' W 013°06'1013.3
2017-Apr-30 22:45N 28°48' W 012°60'813.2
2017-Apr-30 22:08N 28°55' W 012°55'54413.1
2017-Apr-29 04:44N 35°58' W 006°09'1512.1
2017-Apr-29 03:29N 35°58' W 005°50'714.1
2017-Apr-29 03:00N 35°58' W 005°41'713.8
2017-Apr-29 02:30N 35°58' W 005°33'612.5
2017-Apr-29 02:00N 36°00' W 005°26'4 7.8
2017-Apr-29 01:30N 36°04' W 005°24'1 2.8
2017-Apr-29 01:00N 36°05' W 005°22'510.4
2017-Apr-29 00:30N 36°04' W 005°16'611.3
2017-Apr-29 00:00N 36°05' W 005°09'  
2017-Apr-26 00:36N 36°58' E 007°00'8 6.6
2017-Apr-25 23:27N 37°05' E 006°56'0 0.5
2017-Apr-25 22:40N 37°05' E 006°56'0 0.9
2017-Apr-25 22:27N 37°05' E 006°56'1 0.3
2017-Apr-25 18:56N 37°05' E 006°54'2 0.7
2017-Apr-25 15:55N 37°05' E 006°57'2 0.7
2017-Apr-25 13:38N 37°03' E 006°58'0 0.8
2017-Apr-25 13:30N 37°04' E 006°58'1 0.6
2017-Apr-25 12:25N 37°04' E 006°57'1 0.2
2017-Apr-25 07:45N 37°05' E 006°57'1 0.4
2017-Apr-25 06:36N 37°05' E 006°57'0 1.4
2017-Apr-25 06:31N 37°05' E 006°57'2 2.9
2017-Apr-25 05:54N 37°03' E 006°57'0 0.4
2017-Apr-25 04:43N 37°03' E 006°57'0 0.7
2017-Apr-25 04:30N 37°04' E 006°57'1 1.1
2017-Apr-25 04:00N 37°04' E 006°57'2 4.3
2017-Apr-25 03:31N 37°03' E 006°55'4 8.0
2017-Apr-25 03:00N 37°00' E 006°51'611.3
2017-Apr-25 02:31N 37°03' E 006°45'611.9
2017-Apr-25 02:00N 37°06' E 006°39'611.9
2017-Apr-25 01:30N 37°09' E 006°32'611.7
2017-Apr-25 01:00N 37°12' E 006°26'711.8
2017-Apr-25 00:23N 37°12' E 006°16'512.1
2017-Apr-25 00:00N 37°12' E 006°11'612.3
2017-Apr-24 23:30N 37°12' E 006°03'612.7
2017-Apr-24 23:01N 37°12' E 005°55'612.8
2017-Apr-24 22:30N 37°12' E 005°47'712.7
2017-Apr-24 21:58N 37°12' E 005°38'612.8
2017-Apr-24 21:30N 37°12' E 005°31'812.8
2017-Apr-24 20:51N 37°12' E 005°20'412.6
2017-Apr-24 20:30N 37°12' E 005°15'612.9
2017-Apr-24 20:00N 37°12' E 005°07'713.0
2017-Apr-24 19:29N 37°12' E 004°58'613.0
2017-Apr-24 19:00N 37°12' E 004°50'612.8
2017-Apr-24 18:31N 37°12' E 004°43'612.7
2017-Apr-24 18:00N 37°12' E 004°35'612.5
2017-Apr-24 17:30N 37°13' E 004°27'612.2
2017-Apr-24 16:59N 37°12' E 004°19'1212.0
2017-Apr-24 15:59N 37°12' E 004°04'612.1
2017-Apr-24 15:31N 37°12' E 003°56'612.0
2017-Apr-24 15:00N 37°11' E 003°49'612.0
2017-Apr-24 14:30N 37°11' E 003°41'1212.2
2017-Apr-24 13:30N 37°09' E 003°26'612.3
2017-Apr-24 13:00N 37°08' E 003°18'612.3
2017-Apr-24 12:30N 37°08' E 003°11'612.4
2017-Apr-24 12:00N 37°07' E 003°03'612.8
2017-Apr-24 11:30N 37°06' E 002°55'813.0
2017-Apr-24 10:55N 37°05' E 002°46'812.9
2017-Apr-24 10:18N 37°05' E 002°36'413.1
2017-Apr-24 10:00N 37°04' E 002°31'713.1
2017-Apr-24 09:30N 37°03' E 002°23'612.9
2017-Apr-24 09:00N 37°03' E 002°15'612.8
2017-Apr-24 08:30N 37°02' E 002°07'613.0
2017-Apr-24 08:00N 37°01' E 001°59'813.2
2017-Apr-24 07:23N 37°00' E 001°48'513.0
2017-Apr-24 07:00N 36°59' E 001°42'613.0
2017-Apr-24 06:30N 36°59' E 001°34'1213.1
2017-Apr-24 05:37N 36°57' E 001°20'313.3
2017-Apr-24 05:22N 36°57' E 001°16'513.2
2017-Apr-24 05:00N 36°56' E 001°10'713.6
2017-Apr-24 04:30N 36°55' E 001°01'813.8
2017-Apr-24 03:55N 36°54' E 000°51'713.8
2017-Apr-24 03:24N 36°54' E 000°42'513.7
2017-Apr-24 03:00N 36°53' E 000°36'1413.5
2017-Apr-24 01:56N 36°49' E 000°18'613.2
2017-Apr-24 01:29N 36°49' E 000°11'613.1
2017-Apr-24 01:01N 36°47' E 000°03'1113.3
2017-Apr-24 00:12N 36°44' W 000°10'413.4
2017-Apr-23 23:54N 36°44' W 000°15'613.2
2017-Apr-23 23:26N 36°42' W 000°22'513.1
2017-Apr-23 23:00N 36°41' W 000°29'713.1
2017-Apr-23 22:27N 36°39' W 000°38'713.2
2017-Apr-23 21:55N 36°38' W 000°46'20112.6
2017-Apr-23 05:57N 36°03' W 004°52'611.5
2017-Apr-23 05:26N 36°02' W 004°59'511.7
2017-Apr-23 05:00N 36°01' W 005°05'611.5
2017-Apr-23 04:31N 36°00' W 005°12'611.5
2017-Apr-23 04:00N 35°59' W 005°19'714.0
2017-Apr-23 03:30N 35°57' W 005°27'714.1
2017-Apr-23 03:00N 35°55' W 005°36'714.1
2017-Apr-23 02:30N 35°54' W 005°44'913.7
2017-Apr-23 01:51N 35°54' W 005°55'513.1
2017-Apr-23 01:30N 35°53' W 006°01'  

Dump ship's entire track history